Estación Meteorológica de la Universidad de Murcia
Estación Meteorológica de la Universidad de Murcia
Universidad de Murcia
 

Temperatura y Humedad del sueloTemperatura y Humedad del suelo

 

Temperatura del suelo máxima: 32,9 ºC a las 15:36:00 del día 25/09/2018
Temperatura del suelo mínima: 21,5 ºC a las 06:49:00 del día 25/09/2018
Humedad del suelo máxima: 32,7 % a las 20:03:00 del día 25/09/2018
Humedad del suelo mínima: 29,6 % a las 21:21:00 del día 25/09/2018

||Temperatura del suelo máxima últimos meses|| ---- ||Temperatura del suelo mínima últimos meses||

----||Humedad del suelo máxima últimos meses|| ---- ||Humedad del suelo mínima últimos meses||


Temperatura del suelo máxima

  • 1 - 32,9 ºC del día 25/09/2018
  • 2 - 33,3 ºC del día 21/09/2018
  • 3 - 33,3 ºC del día 20/09/2018
  • 4 - 34 ºC del día 19/09/2018
  • 5 - 33,8 ºC del día 18/09/2018
  • 6 - 31,8 ºC del día 17/09/2018
  • 7 - 32,7 ºC del día 16/09/2018
  • 8 - 27,1 ºC del día 15/09/2018
  • 9 - 33,4 ºC del día 14/09/2018
  • 10 - 34,9 ºC del día 13/09/2018
  • 11 - 35,2 ºC del día 12/09/2018
  • 12 - 32,8 ºC del día 11/09/2018
  • 13 - 34,7 ºC del día 10/09/2018
  • 14 - 30 ºC del día 09/09/2018
  • 15 - 26,2 ºC del día 08/09/2018
  • 16 - 34,7 ºC del día 07/09/2018
  • 17 - 36 ºC del día 06/09/2018
  • 18 - 35,9 ºC del día 05/09/2018
  • 19 - 35,6 ºC del día 04/09/2018
  • 20 - 32,7 ºC del día 03/09/2018
  • 21 - 31 ºC del día 02/09/2018
  • 22 - 30,2 ºC del día 01/09/2018
  • 23 - 30 ºC del día 31/08/2018
  • 24 - 31,8 ºC del día 30/08/2018
  • 25 - 31,2 ºC del día 29/08/2018
  • 26 - 31,1 ºC del día 28/08/2018
  • 27 - 31 ºC del día 27/08/2018
  • 28 - 30,6 ºC del día 26/08/2018
  • 29 - 31,5 ºC del día 25/08/2018
  • 30 - 31,8 ºC del día 24/08/2018
  • 31 - 31,3 ºC del día 23/08/2018
  • 32 - 30,4 ºC del día 22/08/2018
  • 33 - 30,2 ºC del día 21/08/2018
  • 34 - 30,2 ºC del día 20/08/2018
  • 35 - 29,1 ºC del día 19/08/2018
  • 36 - 29,3 ºC del día 18/08/2018
  • 37 - 30,3 ºC del día 17/08/2018
  • 38 - 31,2 ºC del día 16/08/2018
  • 39 - 30,8 ºC del día 15/08/2018
  • 40 - 31,5 ºC del día 14/08/2018
  • 41 - 33 ºC del día 13/08/2018
  • 42 - 31,3 ºC del día 12/08/2018
  • 43 - 30,7 ºC del día 11/08/2018
  • 44 - 30,7 ºC del día 10/08/2018
  • 45 - 32,2 ºC del día 09/08/2018
  • 46 - 30,7 ºC del día 08/08/2018
  • 47 - 32,3 ºC del día 07/08/2018
  • 48 - 33,9 ºC del día 06/08/2018
  • 49 - 33,1 ºC del día 05/08/2018
  • 50 - 32,7 ºC del día 04/08/2018
  • 51 - 33,4 ºC del día 03/08/2018
  • 52 - 31,9 ºC del día 02/08/2018
  • 53 - 36,2 ºC del día 01/08/2018
  • 54 - 37,2 ºC del día 31/07/2018
  • 55 - 35,7 ºC del día 30/07/2018
  • 56 - 37,7 ºC del día 29/07/2018
  • 57 - 38,6 ºC del día 28/07/2018
  • 58 - 36,6 ºC del día 27/07/2018

||Volver al inicio de la página||


Temperatura del suelo mínima

  • 1 - 21,5 ºC del día 25/09/2018
  • 2 - 20,9 ºC del día 21/09/2018
  • 3 - 20,9 ºC del día 20/09/2018
  • 4 - 19,8 ºC del día 19/09/2018
  • 5 - 21,3 ºC del día 18/09/2018
  • 6 - 21,6 ºC del día 17/09/2018
  • 7 - 19 ºC del día 16/09/2018
  • 8 - 20 ºC del día 15/09/2018
  • 9 - 21 ºC del día 14/09/2018
  • 10 - 20,5 ºC del día 13/09/2018
  • 11 - 21,6 ºC del día 12/09/2018
  • 12 - 19,9 ºC del día 11/09/2018
  • 13 - 18,8 ºC del día 10/09/2018
  • 14 - 20,1 ºC del día 09/09/2018
  • 15 - 19,4 ºC del día 08/09/2018
  • 16 - 21,2 ºC del día 07/09/2018
  • 17 - 18,2 ºC del día 06/09/2018
  • 18 - 20,7 ºC del día 05/09/2018
  • 19 - 21,2 ºC del día 04/09/2018
  • 20 - 22,6 ºC del día 03/09/2018
  • 21 - 21,5 ºC del día 02/09/2018
  • 22 - 22,1 ºC del día 01/09/2018
  • 23 - 22 ºC del día 31/08/2018
  • 24 - 22,5 ºC del día 30/08/2018
  • 25 - 19,9 ºC del día 29/08/2018
  • 26 - 22,1 ºC del día 28/08/2018
  • 27 - 22,7 ºC del día 27/08/2018
  • 28 - 22,1 ºC del día 26/08/2018
  • 29 - 22,3 ºC del día 25/08/2018
  • 30 - 19,3 ºC del día 24/08/2018
  • 31 - 19,9 ºC del día 23/08/2018
  • 32 - 18,7 ºC del día 22/08/2018
  • 33 - 18,7 ºC del día 21/08/2018
  • 34 - 19 ºC del día 20/08/2018
  • 35 - 22 ºC del día 19/08/2018
  • 36 - 20,7 ºC del día 18/08/2018
  • 37 - 20,5 ºC del día 17/08/2018
  • 38 - 19,8 ºC del día 16/08/2018
  • 39 - 23,6 ºC del día 15/08/2018
  • 40 - 22,5 ºC del día 14/08/2018
  • 41 - 23,8 ºC del día 13/08/2018
  • 42 - 21,2 ºC del día 12/08/2018
  • 43 - 23,8 ºC del día 11/08/2018
  • 44 - 23,8 ºC del día 10/08/2018
  • 45 - 22,7 ºC del día 09/08/2018
  • 46 - 23,3 ºC del día 08/08/2018
  • 47 - 23,5 ºC del día 07/08/2018
  • 48 - 22,3 ºC del día 06/08/2018
  • 49 - 20,3 ºC del día 05/08/2018
  • 50 - 20,6 ºC del día 04/08/2018
  • 51 - 21,2 ºC del día 03/08/2018
  • 52 - 20,2 ºC del día 02/08/2018
  • 53 - 20,4 ºC del día 01/08/2018
  • 54 - 21,9 ºC del día 31/07/2018
  • 55 - 19,1 ºC del día 30/07/2018
  • 56 - 19,7 ºC del día 29/07/2018
  • 57 - 20,6 ºC del día 28/07/2018
  • 58 - 20,2 ºC del día 27/07/2018

||Volver al inicio de la página||


Humedad del suelo máxima

  • 1 - 32,7 % del día 25/09/2018
  • 2 - 36,9 % del día 21/09/2018
  • 3 - 36,9 % del día 20/09/2018
  • 4 - 37,8 % del día 19/09/2018
  • 5 - 43,6 % del día 18/09/2018
  • 6 - 39,8 % del día 17/09/2018
  • 7 - 42,1 % del día 16/09/2018
  • 8 - 46,6 % del día 15/09/2018
  • 9 - 24,5 % del día 14/09/2018
  • 10 - 25,1 % del día 13/09/2018
  • 11 - 25,4 % del día 12/09/2018
  • 12 - 25,3 % del día 11/09/2018
  • 13 - 24,9 % del día 10/09/2018
  • 14 - 24,3 % del día 09/09/2018
  • 15 - 24,7 % del día 08/09/2018
  • 16 - 25,1 % del día 07/09/2018
  • 17 - 25,2 % del día 06/09/2018
  • 18 - 25 % del día 05/09/2018
  • 19 - 25 % del día 04/09/2018
  • 20 - 25,1 % del día 03/09/2018
  • 21 - 25,5 % del día 02/09/2018
  • 22 - 25,4 % del día 01/09/2018
  • 23 - 25,6 % del día 31/08/2018
  • 24 - 25,6 % del día 30/08/2018
  • 25 - 26 % del día 29/08/2018
  • 26 - 26 % del día 28/08/2018
  • 27 - 26,2 % del día 27/08/2018
  • 28 - 27,3 % del día 26/08/2018
  • 29 - 26,2 % del día 25/08/2018
  • 30 - 26 % del día 24/08/2018
  • 31 - 27,3 % del día 23/08/2018
  • 32 - 26,5 % del día 22/08/2018
  • 33 - 26,5 % del día 21/08/2018
  • 34 - 26,6 % del día 20/08/2018
  • 35 - 26,5 % del día 19/08/2018
  • 36 - 26,5 % del día 18/08/2018
  • 37 - 26,6 % del día 17/08/2018
  • 38 - 30 % del día 16/08/2018
  • 39 - 26,8 % del día 15/08/2018
  • 40 - 27,1 % del día 14/08/2018
  • 41 - 27,3 % del día 13/08/2018
  • 42 - 27,9 % del día 12/08/2018
  • 43 - 27,3 % del día 11/08/2018
  • 44 - 27,4 % del día 10/08/2018
  • 45 - 27,5 % del día 09/08/2018
  • 46 - 27,7 % del día 08/08/2018
  • 47 - 27,8 % del día 07/08/2018
  • 48 - 27,7 % del día 06/08/2018
  • 49 - 27,8 % del día 05/08/2018
  • 50 - 28,1 % del día 04/08/2018
  • 51 - 28,3 % del día 03/08/2018
  • 52 - 28,2 % del día 02/08/2018
  • 53 - 28,6 % del día 01/08/2018
  • 54 - 28,3 % del día 31/07/2018
  • 55 - 28,4 % del día 30/07/2018
  • 56 - 28,4 % del día 29/07/2018
  • 57 - 28,5 % del día 28/07/2018
  • 58 - 28,6 % del día 27/07/2018

||Volver al inicio de la página||


Humedad del suelo mínima

  • 1 - 29,6 % del día 25/09/2018
  • 2 - 33,7 % del día 21/09/2018
  • 3 - 33,7 % del día 20/09/2018
  • 4 - 34,6 % del día 19/09/2018
  • 5 - 34,4 % del día 18/09/2018
  • 6 - 35,4 % del día 17/09/2018
  • 7 - 37,4 % del día 16/09/2018
  • 8 - 22,4 % del día 15/09/2018
  • 9 - 22,4 % del día 14/09/2018
  • 10 - 22,3 % del día 13/09/2018
  • 11 - 22,4 % del día 12/09/2018
  • 12 - 22,2 % del día 11/09/2018
  • 13 - 21,8 % del día 10/09/2018
  • 14 - 21,5 % del día 09/09/2018
  • 15 - 21,8 % del día 08/09/2018
  • 16 - 22,3 % del día 07/09/2018
  • 17 - 22 % del día 06/09/2018
  • 18 - 22,3 % del día 05/09/2018
  • 19 - 22,1 % del día 04/09/2018
  • 20 - 22,3 % del día 03/09/2018
  • 21 - 22,5 % del día 02/09/2018
  • 22 - 22,7 % del día 01/09/2018
  • 23 - 22,4 % del día 31/08/2018
  • 24 - 22,7 % del día 30/08/2018
  • 25 - 22,9 % del día 29/08/2018
  • 26 - 22,9 % del día 28/08/2018
  • 27 - 23,1 % del día 27/08/2018
  • 28 - 23,1 % del día 26/08/2018
  • 29 - 23,2 % del día 25/08/2018
  • 30 - 23,1 % del día 24/08/2018
  • 31 - 23,2 % del día 23/08/2018
  • 32 - 23,3 % del día 22/08/2018
  • 33 - 23,3 % del día 21/08/2018
  • 34 - 23,4 % del día 20/08/2018
  • 35 - 23,5 % del día 19/08/2018
  • 36 - 23,5 % del día 18/08/2018
  • 37 - 23,3 % del día 17/08/2018
  • 38 - 23,7 % del día 16/08/2018
  • 39 - 24 % del día 15/08/2018
  • 40 - 24,1 % del día 14/08/2018
  • 41 - 24,2 % del día 13/08/2018
  • 42 - 24,2 % del día 12/08/2018
  • 43 - 23,7 % del día 11/08/2018
  • 44 - 24,5 % del día 10/08/2018
  • 45 - 24,5 % del día 09/08/2018
  • 46 - 24,5 % del día 08/08/2018
  • 47 - 24,7 % del día 07/08/2018
  • 48 - 24,8 % del día 06/08/2018
  • 49 - 24,7 % del día 05/08/2018
  • 50 - 24,9 % del día 04/08/2018
  • 51 - 25 % del día 03/08/2018
  • 52 - 24,9 % del día 02/08/2018
  • 53 - 25,1 % del día 01/08/2018
  • 54 - 24,9 % del día 31/07/2018
  • 55 - 24,6 % del día 30/07/2018
  • 56 - 25,3 % del día 29/07/2018
  • 57 - 25,4 % del día 28/07/2018
  • 58 - 25,1 % del día 27/07/2018

 

|| Temperatura Ambiente|| Humedad relativa|| Velocidad y dirección del viento|| Precipitación|| Radiación Solar Global y PAR|| Presión atmosférica|| Más información|| Volver a la página principal|| Volver al inicio de la página||


Estación Meteorológica de la Universidad de Murcia
http://estacion.um.es/
Informacion actualizada a: 26/09/2018 a las 02:33:00